This demonstration page uses our WeatherBlox Daily Observations layout. Learn more.

Left ArrowRight Arrow

39.92423, -83.80882

Hourly Observations for January 26, 2019

Temp ( °F °C ) Dew Point ( °F °C ) Humidity (%) Winds ( mph kmh ) Pressure ( in mb ) Visibility ( mi km ) Precip ( " mm )
12:56 am 00:56 Cloudy with Light Snow 21 -6.1 12 -11.1 68 68 W 9 15 30.19 1023 9 14 N/A
1:56 am 01:56 Mostly Cloudy 20 -6.7 12 -11.1 71 71 W 10 17 30.19 1022 10 16 N/A
2:56 am 02:56 Cloudy 20 -6.7 14 -10 78 78 SW 7 11 30.18 1022 10 16 N/A
3:56 am 03:56 Cloudy with Light Snow 20 -6.7 15 -9.4 81 81 SSW 6 9 30.18 1022 9 14 N/A
4:56 am 04:56 Cloudy with Light Snow 20 -6.7 16 -8.9 85 85 SSW 8 13 30.17 1022 9 14 N/A
5:56 am 05:56 Cloudy with Light Snow 21 -6.1 17 -8.3 85 85 SW 12 19 30.17 1022 9 14 N/A
6:56 am 06:56 Cloudy with Light Snow 21 -6.1 18 -7.8 88 88 SSW 8 13 30.18 1022 6 10 N/A
8:56 am 08:56 Cloudy with Light Snow 22 -5.6 18 -7.8 85 85 SW 7 11 30.19 1022 4 6 N/A
9:08 am 09:08 Cloudy with Light Snow 21 -6 19 -7 93 93 SW 9 15 30.21 1023 3 4 N/A
9:17 am 09:17 Cloudy with Light Snow 21 -6 19 -7 93 93 SW 9 15 30.21 1023 3 5 N/A
9:51 am 09:51 Cloudy with Light Snow 23 -5 19 -7 86 86 SSW 7 11 30.21 1023 6 10 N/A
9:56 am 09:56 Cloudy with Light Snow 23 -5 20 -6.7 88 88 SSW 8 13 30.18 1022 6 10 N/A
10:56 am 10:56 Cloudy with Light Snow 25 -3.9 20 -6.7 81 81 SW 12 19 30.18 1022 9 14 N/A
11:53 am 11:53 Cloudy with Light Snow 27 -3 19 -7 74 74 WSW 13 20 30.20 1023 9 14 N/A
11:56 am 11:56 Cloudy with Light Snow 26 -3.3 20 -6.7 78 78 SW 16 26 30.17 1022 9 14 N/A
12:05 pm 12:05 Cloudy with Light Snow 27 -3 19 -7 74 74 WSW 17 28 30.19 1022 9 14 N/A
12:33 pm 12:33 Cloudy with Light Snow 27 -3 19 -7 74 74 W 13 20 30.17 1022 9 14 N/A
12:43 pm 12:43 Cloudy with Light Snow 27 -3 19 -7 74 74 WSW 15 24 30.17 1022 9 14 N/A
12:51 pm 12:51 Cloudy with Light Snow 27 -3 21 -6 80 80 WSW 15 24 30.17 1022 9 14 N/A
12:56 pm 12:56 Cloudy with Light Snow 27 -2.8 21 -6.1 78 78 WSW 14 22 30.15 1021 9 14 N/A
1:04 pm 13:04 Cloudy with Light Snow 27 -3 21 -6 80 80 WSW 12 19 30.17 1022 9 14 N/A
1:11 pm 13:11 Cloudy with Light Snow 27 -3 19 -7 74 74 WSW 17 28 30.16 1021 9 14 N/A
2:06 pm 14:06 Cloudy with Light Snow 28 -2 21 -6 74 74 WSW 16 26 30.14 1021 9 14 N/A
2:41 pm 14:41 Cloudy with Light Snow 28 -2 21 -6 74 74 WSW 12 19 30.13 1020 9 14 N/A
2:56 pm 14:56 Cloudy with Light Snow 29 -1.7 22 -5.6 75 75 WSW 10 17 30.11 1020 9 14 N/A
3:04 pm 15:04 Cloudy with Light Snow 28 -2 21 -6 74 74 SW 14 22 30.12 1020 9 14 N/A
3:11 pm 15:11 Cloudy with Light Snow 28 -2 21 -6 74 74 SW 15 24 30.12 1020 9 14 N/A
3:21 pm 15:21 Cloudy 28 -2 21 -6 74 74 SW 12 19 30.12 1020 9 14 N/A
3:28 pm 15:28 Cloudy with Light Snow 28 -2 21 -6 74 74 SW 12 19 30.12 1020 10 16 N/A
3:39 pm 15:39 Cloudy with Light Snow 28 -2 21 -6 74 74 SSW 13 20 30.12 1020 9 14 N/A
3:56 pm 15:56 Cloudy with Light Snow 29 -1.7 23 -5 78 78 SW 9 15 30.10 1019 9 14 N/A
4:56 pm 16:56 Cloudy 29 -1.7 23 -5 78 78 SSW 8 13 30.09 1019 10 16 N/A
5:56 pm 17:56 Cloudy 30 -1.1 22 -5.6 72 72 S 8 13 30.06 1018 10 16 N/A
6:56 pm 18:56 Cloudy 29 -1.7 23 -5 78 78 S 9 15 30.05 1018 10 16 N/A
8:56 pm 20:56 Cloudy with Light Snow 29 -1.7 26 -3.3 89 89 S 16 26 29.98 1015 9 14 N/A
9:56 pm 21:56 Cloudy with Light Snow 29 -1.7 27 -2.8 92 92 S 13 20 29.97 1015 3 5 N/A
10:00 pm 22:00 Cloudy with Light Snow 28 -2 28 -2 100 100 S 13 20 29.98 1015 3 4 N/A
10:19 pm 22:19 Cloudy with Light Snow 30 -1 28 -2 93 93 S 15 24 29.97 1015 2 3 N/A
10:37 pm 22:37 Cloudy with Light Snow 30 -1 28 -2 93 93 SSW 15 24 29.96 1014 3 4 N/A
10:47 pm 22:47 Cloudy with Light Snow 30 -1 28 -2 93 93 S 14 22 29.95 1014 1 2 N/A
10:56 pm 22:56 Cloudy with Light Snow 30 -1.1 29 -1.7 96 96 S 16 26 29.93 1014 2 2 N/A
11:21 pm 23:21 Cloudy with Light Snow 30 -1 28 -2 93 93 SSW 13 20 29.94 1014 2 2 N/A
11:36 pm 23:36 Cloudy with Light Snow 30 -1 30 -1 100 100 SSW 16 26 29.94 1014 2 3 N/A
11:56 pm 23:56 Cloudy with Light Snow 31 -0.6 30 -1.1 96 96 SSW 16 26 29.91 1013 2 2 N/A

Powered by AerisWeather